Location: ????????
(55.6189°N, 38.3031°E)
Time: 08:05:01
(UTC+00:00)

Cosmos 1076 Rocket - Pass Details

Date: 15 November 2019
Orbit: 588 x 614 km, 82.5° (Epoch: 13 December)

Event Time Altitude Azimuth Distance (km) Brightness Sun altitude
Exits shadow 02:25:52 - 193° (SSW) 2,505 6.6 -21.5°
Reaches altitude 10° 02:27:12 10° 194° (SSW) 1,967 6.0 -21.3°
Maximum altitude 02:31:34 82° 283° (WNW) 624 3.4 -20.6°
Drops below altitude 10° 02:35:56 10° 11° (N) 1,969 6.2 -20.0°
Sets 02:38:09 0° 12° (NNE) 2,873 7.1 -19.7°
